Location: Buttermere
(51.3333°N, 1.5167°W)
Time: 13:39:19
(UTC+00:00)

Cosmos 1464 Rocket - Pass Details

Date: 18 September 2020
Orbit: 953 x 1000 km, 82.9° (Epoch: 25 October)

Event Time Altitude Azimuth Distance (km) Brightness Sun altitude
Rises 19:43:06 0° 185° (S) 3,617 6.8 -14.6°
Reaches altitude 10° 19:45:35 10° 185° (S) 2,677 6.1 -15.0°
Maximum altitude 19:51:42 85° 98° (E) 968 3.9 -15.8°
Drops below altitude 10° 19:57:55 10° 11° (N) 2,713 6.5 -16.7°
Sets 20:00:26 0° 11° (N) 3,670 7.2 -17.1°
